HYLAS 1

Last updated on Feb. 20, 2020, 4:40 a.m. UTC

1 37237U 10065A   20050.88056253 -.00000251  00000-0  00000-0 0  9997
2 37237   0.0589 290.8825 0002107  48.1724  48.2042  1.00272308 33825
UTC
Height (km)
Latitude
Longitude
Inclination
Orbital Period
UTC large
Height (km)
Speed (km/s)
/
Latitude / Longitude
Inclination (degrees)
Orbital Period (minutes)
Azimuth
Elevation
Range (km)
Doppler Factor
iOS Compass Heading
iOS Angle

Next 30 passes for location: Hong Kong

Rise time Rise Azimuth (degrees) Set time Set Azimuth (degrees) Duration Max altitude (degrees)

No matching passes for this satellites